Location: Ellikon
(47.6052°N, 8.5988°E)
Time: 00:09:34
(UTC+00:00)

Daily predictions for brighter satellites

Satellite Brightness Start Highest point End
(mag) Time Altitude Azimuth Time Altitude Azimuth Time Altitude Azimuth
Cosmos 2369 Rocket 4.3 02:52:23 21° E 02:52:23 21° E 02:56:07 10° NE
USA 215 4.3 02:54:49 10° E 02:59:30 39° NE 02:59:30 39° NE
Cosmos 1943 Rocket 4.1 03:12:50 23° NE 03:12:50 23° NE 03:14:56 10° NNE
Tsikada Rocket 4.4 03:31:33 57° NE 03:31:33 57° NE 03:36:51 10° NNE
CENTAUR R/B 2.9 03:44:24 58° NNE 03:44:24 58° NNE 03:50:22 10° NE
NOSS 3-2 (A) 4.0 04:04:16 43° N 04:04:16 43° N 04:09:35 10° NE
Cosmos 1151 Rocket 4.0 04:05:31 44° SE 04:05:31 44° SE 04:08:45 10° SSE
Cosmos 1486 Rocket 4.2 04:03:40 55° SSE 04:04:39 67° ESE 04:09:54 10° NNE
SL-8 R/B 4.3 04:07:03 53° SE 04:07:03 53° SE 04:10:48 10° ESE
DNEPR-1 R/B 3.9 04:11:35 80° SE 04:11:35 80° SE 04:16:55 10° SE
NOSS 3-2 (C) 3.4 04:12:49 63° NNW 04:12:49 63° NNW 04:19:09 10° NE
Cosmos 1833 4.3 04:15:45 49° NNW 04:17:19 76° ENE 04:23:03 10° SSE
Okean 3 Rocket 4.4 04:13:19 10° S 04:17:44 53° E 04:22:10 10° NNE
Cosmos 1766 Rocket 3.9 04:16:32 10° S 04:20:48 62° E 04:25:05 10° NNE
BREEZE-M DEB (TANK) 3.6 04:21:03 46° SSW 04:21:22 47° SSW 04:32:38 10° SE
SL-27 R/B 4.1 04:21:23 30° NE 04:21:41 31° ENE 04:24:52 10° SE
Envisat 3.4 04:18:47 10° NNE 04:23:51 62° E 04:28:52 10° S
Cosmos 968 Rocket 4.3 04:27:18 35° N 04:27:18 35° N 04:30:31 10° NNE
Cosmos 1328 Rocket 3.7 04:25:33 52° NNE 04:26:29 70° E 04:30:48 10° SSE
Cosmos 2263 4.2 04:24:35 21° SSW 04:28:34 85° ESE 04:34:21 10° NNE
Cosmos 2297 Rocket 4.4 04:26:05 10° N 04:30:00 19° NE 04:33:53 10° E
Cosmos 2098 Rocket 3.0 04:32:19 40° SSW 04:33:53 82° W 04:39:14 10° N
Cosmos 2369 Rocket 2.1 04:34:16 51° WSW 04:35:27 65° WNW 04:41:04 10° NNE
Meteor 1-10 Rocket 4.3 04:30:28 10° N 04:36:01 73° ENE 04:41:33 10° SSE
Cosmos 2344 3.9 04:34:44 39° WNW 04:36:20 43° NNW 04:44:10 10° NE
Cosmos 2142 Rocket 4.4 04:31:16 10° N 04:37:38 80° W 04:44:00 10° S
SL-19 R/B 4.2 04:33:43 10° S 04:39:14 63° WSW 04:41:27 36° NW
USA 238 DEB 3.9 04:39:34 42° WNW 04:40:48 46° NW 04:47:29 10° NE
USA 238 3.9 04:39:38 42° WNW 04:40:54 46° NW 04:47:35 10° NE
Cosmos 1656 Rocket 3.4 04:37:55 25° SW 04:41:11 78° WNW 04:46:40 10° NNE
COSMO-SKYMED 1 2.4 04:37:26 10° S 04:41:47 81° WSW 04:42:51 50° NNW
Cosmos 2279 Rocket 3.8 04:35:49 10° N 04:42:01 78° W 04:48:12 10° S
USA 215 3.2 04:36:59 10° ESE 04:43:31 81° NNE 04:46:50 32° NW
H-2A R/B 3.9 04:40:14 10° N 04:46:53 16° SSW 04:47:44 10° SSW
Meteor 1-31 Rocket 2.9 04:40:39 10° NNE 04:44:33 72° ESE 04:48:27 10° S
Helios 1B 4.5 04:45:13 10° S 04:49:30 64° WSW 04:50:20 51° NW
CBERS 1 LM4 rocket 4.4 04:47:50 10° NNE 04:52:45 88° ESE 04:57:48 10° SSW
CZ-4B R/B 4.3 04:51:31 10° E 04:53:14 14° ENE 04:54:56 10° NNE
Cosmos 1408 Rocket 3.9 04:49:01 10° S 04:53:16 65° E 04:57:33 10° NNE
CZ-2C R/B 2.6 04:47:56 10° S 04:53:22 66° WSW 04:57:37 16° NNW
Cosmos 1943 Rocket 3.3 04:54:24 26° NNW 04:54:24 26° NNW 04:58:18 10° N
CZ-4B R/B 4.0 04:49:06 10° NNE 04:53:36 87° W 04:58:04 10° SSW
Cosmos 1354 Rocket 3.9 04:54:18 10° SSW 04:59:35 86° WNW 05:04:56 10° NNE
Cosmos 1634 Rocket 4.4 04:58:14 26° NW 05:00:56 37° W 05:06:33 10° SSW
Meteor 2-15 4.3 04:57:14 10° NNW 05:03:18 79° W 05:09:21 10° S
Cosmos 2227 Rocket 4.1 05:01:39 10° N 05:06:05 23° NE 05:10:29 10° E
Cosmos 1862 4.1 05:07:19 32° NNW 05:07:19 32° NNW 05:09:53 10° N
Landsat 5 3.7 05:05:16 10° S 05:09:41 56° W 05:12:32 21° NNW
Cosmos 1515 Rocket 3.4 05:06:35 13° NNW 05:10:28 75° W 05:14:47 10° S
SJ 16-02 1.8 05:08:17 10° S 05:12:36 63° ESE 05:16:57 10° NNE
ADEOS 3.6 05:07:37 10° NNE 05:12:53 84° ESE 05:18:06 10° SSW
BREEZE-M DEB (TANK) 3.3 05:16:52 33° WNW 05:18:18 70° N 05:26:46 10° E
Meteor 2-19 Rocket 4.3 05:13:15 10° S 05:19:18 83° W 05:25:24 10° N
NOAA 11 4.2 05:18:57 10° NNE 05:24:27 87° WNW 05:29:57 10° SSW
CZ-4C R/B 3.2 05:22:49 10° S 05:25:47 38° W 05:26:28 33° WNW
Cosmos 1538 Rocket 4.1 05:20:58 10° NNW 05:26:15 77° ENE 05:31:26 10° SSE
COSMOS 2487 2.6 05:23:41 15° NNW 05:26:20 66° ENE 05:29:39 10° SSE
Cosmos 1500 Rocket 3.6 05:26:19 10° S 05:30:47 89° WNW 05:35:17 10° N
CZ-2C R/B 3.0 05:27:07 10° NNE 05:32:02 87° E 05:37:10 10° SSW
SMAP 4.0 05:30:16 10° NNE 05:34:50 52° E 05:39:23 10° S
CENTAUR R/B 3.7 05:31:36 19° WNW 05:35:10 29° NNW 05:41:41 10° NE
Sich 1 4.0 05:32:51 10° SSE 05:36:58 49° E 05:41:06 10° NNE
FALCON 9 DEB 4.0 05:37:32 21° NNW 05:38:39 28° N 05:41:13 10° ENE
CZ-4B R/B 2.4 05:36:22 10° NNE 05:39:58 80° WNW 05:43:33 10° SSW
H-2A R/B 3.9 05:35:50 10° NNE 05:40:13 32° E 05:44:36 10° SSE
ATLAS 5 CENTAUR R/B 1.3 05:36:49 10° SW 05:40:40 86° NW 05:45:04 10° NE
FALCON 9 DEB 3.9 05:40:01 21° NW 05:41:16 30° N 05:43:51 10° ENE
Meteor 1-27 Rocket 3.8 05:35:54 10° NNW 05:41:25 55° W 05:47:02 10° S
FALCON 9 DEB 3.8 05:40:11 21° NW 05:41:28 31° NNE 05:44:04 10° ENE
Cosmos 1805 Rocket 3.8 05:38:36 10° S 05:42:58 73° E 05:47:20 10° NNE
H-2A R/B 2.0 05:39:23 10° S 05:43:39 78° WSW 05:48:05 10° NNW
Cosmos 1500 4.2 05:41:07 10° S 05:44:47 49° E 05:48:28 10° NNE
Meteor PRIRODA 3.6 05:41:13 10° N 05:44:48 60° WNW 05:48:22 10° SSW
Cosmos 1777 Rocket 4.0 05:41:58 10° SW 05:47:08 62° WNW 05:52:22 10° NNE
USA 32 4.0 05:43:32 10° N 05:48:47 75° W 05:54:00 10° S
FAST Rocket 4.2 05:47:07 10° SSW 05:49:42 53° WNW 05:53:02 10° N
Lacrosse 4 Rocket 3.5 05:47:52 10° N 05:51:26 23° NE 05:55:00 10° E
Cosmos 1515 3.7 05:50:00 10° NNW 05:53:44 58° W 05:57:28 10° S
Cosmos 1340 Rocket 3.0 05:51:29 10° SSW 05:55:20 48° WNW 05:59:15 10° N
SL-27 R/B 3.9 05:54:53 15° WNW 05:56:30 20° W 05:59:09 10° SSW
Okean O Rocket 4.2 05:54:25 10° NE 05:58:04 24° E 06:01:40 10° SSE
Cosmos 2026 Rocket 4.1 05:52:27 10° S 05:58:48 89° E 06:05:06 10° N
Cosmos 923 Rocket 4.4 05:56:08 10° NNW 06:01:30 70° ENE 06:06:48 10° SSE
Envisat 4.1 05:58:41 10° NNW 06:02:25 21° WNW 06:06:10 10° WSW
Cosmos 2195 Rocket 4.4 05:56:43 10° SSW 06:02:49 75° W 06:08:58 10° N
NOAA 6 4.1 05:58:28 10° NNE 06:03:37 86° ESE 06:08:44 10° SSW
ATLAS 3B R/B 2.6 05:57:38 10° SW 06:04:12 82° NW 06:11:09 10° NE
FALCON 9 DEB 3.8 06:03:14 13° NW 06:05:29 31° NNE 06:08:06 10° ENE
Cosmos 1553 Rocket 4.3 06:02:22 10° N 06:08:28 72° E 06:14:33 10° SSE
Meteor 1-25 Rocket 4.2 06:04:43 10° SSW 06:10:18 68° WNW 06:15:53 10° N
Cosmos 158 Rocket 4.3 06:05:41 10° NNW 06:10:37 48° WSW 06:15:38 10° S
Cosmos 1809 Rocket 4.4 06:07:09 10° SSW 06:13:17 71° W 06:19:26 10° N
Cosmos 1939 Rocket 3.0 06:09:57 10° N 06:13:44 47° WNW 06:17:27 10° SW
PSLV R/B 3.9 06:09:46 10° SSE 06:13:50 82° WSW 06:17:58 10° NNW
Cosmos 1666 3.4 06:10:16 10° S 06:13:59 59° E 06:17:42 10° NNE
Cosmos 2297 Rocket 2.4 06:09:17 10° NNW 06:15:00 80° ENE 06:20:39 10° SSE
FALCON 9 DEB 4.1 06:13:38 10° WNW 06:16:46 33° N 06:19:54 10° ENE
Cosmos 1174 4.0 06:14:59 10° WSW 06:17:41 30° NW 06:20:36 10° NNE
EO 1 Delta rocket 4.3 06:11:23 10° N 06:17:54 73° WNW 06:23:03 10° SSW
Cosmos 2369 Rocket 3.7 06:17:19 10° WNW 06:20:38 16° NW 06:24:00 10° N
Cosmos 1607 4.1 06:18:04 10° NW 06:24:13 60° WSW 06:30:13 10° SSE
CZ-4B R/B 1.8 06:21:43 10° S 06:24:54 42° W 06:28:02 10° NNW
Cosmos 1633 Rocket 3.4 06:20:38 10° S 06:24:56 72° E 06:29:17 10° NNE
USA 215 4.1 06:21:02 10° SSE 06:26:56 36° SW 06:32:52 10° WNW
